^^
Station Historical Data
 
Daily Summary for November 13, 2018 Units:  Metric    English   Both
« Previous Day
Next Day »
Daily Weekly Monthly Yearly Custom
  Current: High: Low: Average:
Temperature: -9.2 °C -17.8 °C -9.2 °C -2.3 °C
Dew Point: -13.5 °C -17.8 °C -13.5 °C -4 °C
Humidity: 71 % Humidity % 71 % 88 %
Wind Speed: 3.2 km/h 0 km/h 0 km/h 3.4 km/h
Wind Gust: 11.3 km/h 0 km/h - -
Wind:NW - - NNW
Pressure: 1017.5 hPa 0 hPa 1010.7 hPa -
Precipitation: 3.3 mm      
Historical Graphs
 
 
Tabular Data for November 13, 2018
Time Temperature Dew Point Pressure Wind Wind Speed Wind Gust Humidity Rainfall Rate (Hourly) solar Conditions
-17.8 °C -17.8 °C 0 hPa Calm     Humidity % 0 mm SoftwareType W/m2 Conditions
00:00 -1.3 °C -3.4 °C 1023.9 hPa Calm     86 % 0 mm WeatherDisplay:10.37 W/m2 FEW
00:05 -1.4 °C -3.3 °C 1023.9 hPa Calm     87 % 0 mm WeatherDisplay:10.37 W/m2 FEW
00:10 -1.4 °C -3.3 °C 1023.9 hPa Calm     87 % 0 mm WeatherDisplay:10.37 W/m2 FEW
00:15 -1.4 °C -3.3 °C 1023.9 hPa Calm     87 % 0 mm WeatherDisplay:10.37 W/m2 FEW
00:25 -1.4 °C -3.2 °C 1023.9 hPa Calm     88 % 0.25 mm WeatherDisplay:10.37 W/m2 RA
00:30 -1.5 °C -3.2 °C 1023.9 hPa Calm     88 % 0 mm WeatherDisplay:10.37 W/m2 RA
00:40 -1.6 °C -3.1 °C 1023.9 hPa Calm     89 % 0 mm WeatherDisplay:10.37 W/m2 FEW
00:45 -1.6 °C -3.1 °C 1023.6 hPa Calm     89 % 0 mm WeatherDisplay:10.37 W/m2 FEW
00:50 -1.6 °C -3.2 °C 1023.6 hPa Calm     89 % 0 mm WeatherDisplay:10.37 W/m2 FEW
00:55 -1.7 °C -3.1 °C 1023.6 hPa Calm     90 % 0 mm WeatherDisplay:10.37 W/m2 FEW
01:00 -1.7 °C -3.1 °C 1023.6 hPa Calm     90 % 0 mm WeatherDisplay:10.37 W/m2 FEW
01:10 -1.7 °C -3.1 °C 1023.2 hPa Calm     90 % 0 mm WeatherDisplay:10.37 W/m2 RA
01:15 -1.7 °C -2.9 °C 1023.2 hPa Calm     91 % 0 mm WeatherDisplay:10.37 W/m2 FEW
01:20 -1.7 °C -3 °C 1022.9 hPa Calm     91 % 0 mm WeatherDisplay:10.37 W/m2 FEW
01:25 -1.7 °C -3 °C 1022.9 hPa Calm     91 % 0 mm WeatherDisplay:10.37 W/m2 FEW
01:35 -1.8 °C -3.1 °C 1023.2 hPa Calm     91 % 0 mm WeatherDisplay:10.37 W/m2 FEW
01:40 -1.8 °C -2.9 °C 1022.9 hPa Calm     92 % 0 mm WeatherDisplay:10.37 W/m2 FEW
01:45 -1.9 °C -3.2 °C 1022.9 hPa Calm     91 % 0 mm WeatherDisplay:10.37 W/m2 FEW
01:50 -1.9 °C -3 °C 1022.9 hPa Calm     92 % 0 mm WeatherDisplay:10.37 W/m2 FEW
02:00 -1.9 °C -3.1 °C 1022.6 hPa Calm     92 % 0 mm WeatherDisplay:10.37 W/m2 FEW
02:05 -1.9 °C -3.1 °C 1022.6 hPa Calm     92 % 0 mm WeatherDisplay:10.37 W/m2 FEW
02:15 -2 °C -3.1 °C 1022.6 hPa Calm     92 % 0 mm WeatherDisplay:10.37 W/m2 FEW
02:25 -2 °C -3.1 °C 1022.2 hPa Calm     92 % 0 mm WeatherDisplay:10.37 W/m2 FEW
02:35 -2.1 °C -3.1 °C 1022.2 hPa Calm     93 % 0 mm WeatherDisplay:10.37 W/m2 FEW
02:40 -2.1 °C -3.1 °C 1022.2 hPa Calm     93 % 0 mm WeatherDisplay:10.37 W/m2 FEW
02:45 -2.1 °C -3.1 °C 1022.2 hPa Calm     93 % 0 mm WeatherDisplay:10.37 W/m2 FEW
02:50 -2.1 °C -3.1 °C 1021.9 hPa Calm     93 % 0.25 mm WeatherDisplay:10.37 W/m2 RA
03:00 -2.1 °C -3.1 °C 1021.9 hPa Calm     93 % 0 mm WeatherDisplay:10.37 W/m2 FEW
03:05 -2.1 °C -3.1 °C 1021.9 hPa Calm     93 % 0 mm WeatherDisplay:10.37 W/m2 FEW
03:10 -2.1 °C -3.1 °C 1021.9 hPa Calm     93 % 0 mm WeatherDisplay:10.37 W/m2 FEW
03:20 -2.1 °C -3.1 °C 1021.6 hPa Calm     93 % 0 mm WeatherDisplay:10.37 W/m2 FEW
03:25 -2.1 °C -3.1 °C 1021.6 hPa Calm     93 % 0.25 mm WeatherDisplay:10.37 W/m2 RA
03:30 -2.1 °C -3.1 °C 1021.6 hPa Calm     93 % 0 mm WeatherDisplay:10.37 W/m2 RA
03:35 -2.1 °C -3.1 °C 1021.2 hPa Calm     93 % 0 mm WeatherDisplay:10.37 W/m2 FEW
03:40 -2.1 °C -3.1 °C 1021.2 hPa Calm     93 % 0 mm WeatherDisplay:10.37 W/m2 FEW
03:50 -2.1 °C -3.1 °C 1021.2 hPa Calm     93 % 0 mm WeatherDisplay:10.37 W/m2 FEW
03:55 -2.1 °C -3.1 °C 1021.2 hPa Calm     93 % 0 mm WeatherDisplay:10.37 W/m2 FEW
04:00 -2.1 °C -3.1 °C 1020.9 hPa Calm     93 % 0.25 mm WeatherDisplay:10.37 W/m2 RA
04:05 -2.1 °C -3.1 °C 1020.9 hPa Calm     93 % 0 mm WeatherDisplay:10.37 W/m2 RA
04:15 -2.1 °C -3.1 °C 1020.9 hPa Calm     93 % 0 mm WeatherDisplay:10.37 W/m2 FEW
04:25 -2.1 °C -3.1 °C 1020.9 hPa Calm     93 % 0 mm WeatherDisplay:10.37 W/m2 FEW
04:35 -2.1 °C -3.1 °C 1020.9 hPa Calm     93 % 0 mm WeatherDisplay:10.37 W/m2 RA
04:40 -2.1 °C -3.1 °C 1020.5 hPa Calm     93 % 0 mm WeatherDisplay:10.37 W/m2 FEW
04:45 -2.1 °C -3.1 °C 1020.9 hPa Calm     93 % 0 mm WeatherDisplay:10.37 W/m2 FEW
04:50 -2.1 °C -3.1 °C 1020.9 hPa Calm     93 % 0 mm WeatherDisplay:10.37 W/m2 FEW
04:55 -2.1 °C -3.1 °C 1020.9 hPa Calm     93 % 0.25 mm WeatherDisplay:10.37 W/m2 RA
05:00 -2.1 °C -2.9 °C 1020.5 hPa Calm     94 % 0 mm WeatherDisplay:10.37 W/m2 RA
05:05 -2.1 °C -2.9 °C 1020.5 hPa Calm     94 % 0 mm WeatherDisplay:10.37 W/m2 FEW
05:10 -2.1 °C -2.9 °C 1020.5 hPa Calm     94 % 0 mm WeatherDisplay:10.37 W/m2 FEW
05:15 -2.1 °C -2.9 °C 1020.2 hPa Calm     94 % 0 mm WeatherDisplay:10.37 W/m2 FEW
05:20 -2.1 °C -2.9 °C 1020.2 hPa Calm     94 % 0.25 mm WeatherDisplay:10.37 W/m2 RA
05:25 -2.1 °C -2.9 °C 1020.2 hPa Calm     94 % 0 mm WeatherDisplay:10.37 W/m2 RA
05:30 -2.1 °C -2.9 °C 1020.2 hPa Calm     94 % 0 mm WeatherDisplay:10.37 W/m2 FEW
05:35 -2.1 °C -2.9 °C 1019.9 hPa Calm     94 % 0 mm WeatherDisplay:10.37 W/m2 FEW
05:40 -2.1 °C -2.9 °C 1019.9 hPa Calm     94 % 0.25 mm WeatherDisplay:10.37 W/m2 RA
05:45 -2.1 °C -2.9 °C 1019.9 hPa Calm     94 % 0 mm WeatherDisplay:10.37 W/m2 RA
05:50 -2 °C -2.8 °C 1019.9 hPa Calm     94 % 0 mm WeatherDisplay:10.37 W/m2 FEW
05:55 -2 °C -2.8 °C 1019.5 hPa Calm     94 % 0 mm WeatherDisplay:10.37 W/m2 FEW
06:00 -2 °C -2.8 °C 1019.5 hPa Calm     94 % 0.25 mm WeatherDisplay:10.37 W/m2 RA
06:05 -2 °C -2.8 °C 1019.5 hPa Calm     94 % 0 mm WeatherDisplay:10.37 W/m2 RA
06:10 -2 °C -2.8 °C 1019.5 hPa Calm     94 % 0.25 mm WeatherDisplay:10.37 W/m2 RA
06:15 -1.9 °C -2.8 °C 1019.2 hPa Calm     94 % 0 mm WeatherDisplay:10.37 W/m2 RA
06:20 -1.9 °C -2.8 °C 1019.2 hPa Calm     94 % 0 mm WeatherDisplay:10.37 W/m2 FEW
06:25 -2 °C -2.8 °C 1019.2 hPa Calm     94 % 0 mm WeatherDisplay:10.37 W/m2 FEW
06:30 -2 °C -2.8 °C 1019.2 hPa Calm     94 % 0 mm WeatherDisplay:10.37 W/m2 FEW
06:35 -2 °C -2.8 °C 1019.5 hPa Calm     94 % 0 mm WeatherDisplay:10.37 W/m2 FEW
06:40 -2 °C -2.8 °C 1018.8 hPa Calm     94 % 0 mm WeatherDisplay:10.37 W/m2 FEW
06:45 -1.9 °C -2.8 °C 1018.8 hPa Calm     94 % 0 mm WeatherDisplay:10.37 W/m2 FEW
06:55 -1.9 °C -2.8 °C 1018.8 hPa Calm     94 % 0 mm WeatherDisplay:10.37 W/m2 FEW
07:05 -1.9 °C -2.8 °C 1018.5 hPa Calm     94 % 0.25 mm WeatherDisplay:10.37 W/m2 RA
07:10 -1.9 °C -2.7 °C 1018.8 hPa Calm     94 % 0 mm WeatherDisplay:10.37 W/m2 RA
07:15 -1.9 °C -2.7 °C 1018.8 hPa Calm     94 % 0 mm WeatherDisplay:10.37 W/m2 FEW
07:20 -1.9 °C -2.7 °C 1018.8 hPa Calm     94 % 0 mm WeatherDisplay:10.37 W/m2 FEW
07:25 -1.9 °C -2.7 °C 1018.8 hPa Calm     94 % 0 mm WeatherDisplay:10.37 W/m2 FEW
07:30 -1.8 °C -2.7 °C 1018.8 hPa Calm     94 % 0.25 mm WeatherDisplay:10.37 W/m2 RA
07:40 -1.8 °C -2.7 °C 1018.5 hPa Calm     94 % 0 mm WeatherDisplay:10.37 W/m2 FEW
07:50 -1.8 °C -2.6 °C 1018.5 hPa Calm     94 % 0 mm WeatherDisplay:10.37 W/m2 FEW
07:55 -1.7 °C -2.6 °C 1018.2 hPa Calm     94 % 0.25 mm WeatherDisplay:10.37 W/m2 RA
08:00 -1.7 °C -2.4 °C 1018.2 hPa Calm     95 % 0 mm WeatherDisplay:10.37 W/m2 RA
08:05 -1.6 °C -2.3 °C 1018.2 hPa Calm     95 % 0 mm WeatherDisplay:10.37 W/m2 FEW
08:10 -1.6 °C -2.3 °C 1018.2 hPa Calm     95 % 0 mm WeatherDisplay:10.37 W/m2 FEW
08:15 -1.6 °C -2.4 °C 1018.2 hPa Calm     94 % 0 mm WeatherDisplay:10.37 W/m2 FEW
08:20 -1.5 °C -2.3 °C 1018.2 hPa Calm     94 % 0.25 mm WeatherDisplay:10.37 W/m2 RA
08:25 -1.4 °C -2.3 °C 1017.8 hPa Calm     94 % 0 mm WeatherDisplay:10.37 W/m2 RA
08:30 -1.4 °C -2.3 °C 1017.8 hPa Calm     94 % 0 mm WeatherDisplay:10.37 W/m2 FEW
08:35 -1.4 °C -2.1 °C 1018.2 hPa Calm     95 % 0 mm WeatherDisplay:10.37 W/m2 FEW
08:40 -1.3 °C -2.1 °C 1017.8 hPa Calm     95 % 0 mm WeatherDisplay:10.37 W/m2 FEW
08:45 -1.3 °C -2 °C 1017.8 hPa Calm     95 % 0 mm WeatherDisplay:10.37 W/m2 FEW
08:50 -1.2 °C -1.9 °C 1017.5 hPa Calm     95 % 0 mm WeatherDisplay:10.37 W/m2 FEW
08:55 -1.1 °C -1.8 °C 1017.5 hPa Calm     95 % 0 mm WeatherDisplay:10.37 W/m2 FEW
09:00 -1.1 °C -1.8 °C 1017.2 hPa Calm     95 % 0 mm WeatherDisplay:10.37 W/m2 FEW
09:05 -1 °C -1.7 °C 1017.2 hPa Calm     95 % 0 mm WeatherDisplay:10.37 W/m2 FEW
09:10 -0.9 °C -1.7 °C 1017.2 hPa Calm     95 % 0 mm WeatherDisplay:10.37 W/m2 FEW
09:15 -0.9 °C -1.6 °C 1017.2 hPa Calm     95 % 0 mm WeatherDisplay:10.37 W/m2 FEW
09:20 -0.8 °C -1.6 °C 1017.2 hPa Calm     95 % 0 mm WeatherDisplay:10.37 W/m2 FEW
09:25 -0.7 °C -1.4 °C 1016.8 hPa Calm     95 % 0 mm WeatherDisplay:10.37 W/m2 FEW
09:30 -0.7 °C -1.4 °C 1016.8 hPa Calm     95 % 0 mm WeatherDisplay:10.37 W/m2 FEW
09:35 -0.6 °C -1.3 °C 1016.5 hPa Calm     95 % 0 mm WeatherDisplay:10.37 W/m2 FEW
09:40 -0.6 °C -1.3 °C 1016.5 hPa Calm     95 % 0 mm WeatherDisplay:10.37 W/m2 FEW
09:45 -0.5 °C -1.2 °C 1016.5 hPa Calm     95 % 0 mm WeatherDisplay:10.37 W/m2 FEW
09:50 -0.4 °C -1.2 °C 1016.5 hPa Calm     95 % 0 mm WeatherDisplay:10.37 W/m2 FEW
09:55 -0.4 °C -1.1 °C 1016.5 hPa Calm     95 % 0 mm WeatherDisplay:10.37 W/m2 FEW
10:00 -0.3 °C -1.1 °C 1016.5 hPa Calm     95 % 0.25 mm WeatherDisplay:10.37 W/m2 RA
10:05 -0.3 °C -1 °C 1016.1 hPa Calm     95 % 0 mm WeatherDisplay:10.37 W/m2 RA
10:10 -0.2 °C -0.9 °C 1015.8 hPa Calm     95 % 0 mm WeatherDisplay:10.37 W/m2 FEW
10:15 -0.2 °C -1 °C 1015.8 hPa Calm     94 % 0 mm WeatherDisplay:10.37 W/m2 FEW
10:20 -0.1 °C -0.8 °C 1015.8 hPa Calm     95 % 0 mm WeatherDisplay:10.37 W/m2 FEW
10:25 -0.1 °C -0.8 °C 1015.8 hPa Calm     95 % 0 mm WeatherDisplay:10.37 W/m2 FEW
10:30 0 °C -0.8 °C 1015.5 hPa Calm     94 % 0 mm WeatherDisplay:10.37 W/m2 FEW
10:35 0.1 °C -0.8 °C 1015.5 hPa Calm     94 % 0 mm WeatherDisplay:10.37 W/m2 FEW
10:40 0.2 °C -0.7 °C 1015.5 hPa Calm     94 % 0 mm WeatherDisplay:10.37 W/m2 FEW
10:45 0.3 °C -0.6 °C 1015.5 hPa Calm     94 % 0 mm WeatherDisplay:10.37 W/m2 FEW
10:50 0.3 °C -0.5 °C 1015.5 hPa Calm     94 % 0 mm WeatherDisplay:10.37 W/m2 FEW
10:55 0.4 °C -0.4 °C 1015.1 hPa Calm     94 % 0 mm WeatherDisplay:10.37 W/m2 FEW
11:00 0.4 °C -0.4 °C 1015.1 hPa Calm     94 % 0 mm WeatherDisplay:10.37 W/m2 FEW
11:05 0.5 °C -0.3 °C 1015.1 hPa Calm     94 % 0 mm WeatherDisplay:10.37 W/m2 FEW
11:10 0.5 °C -0.3 °C 1014.8 hPa Calm     94 % 0 mm WeatherDisplay:10.37 W/m2 FEW
11:15 0.6 °C -0.3 °C 1014.8 hPa Calm     94 % 0 mm WeatherDisplay:10.37 W/m2 FEW
11:20 0.6 °C -0.3 °C 1014.8 hPa Calm     94 % 0 mm WeatherDisplay:10.37 W/m2 FEW
11:25 0.6 °C -0.2 °C 1014.4 hPa Calm     94 % 0 mm WeatherDisplay:10.37 W/m2 FEW
11:30 0.7 °C -0.2 °C 1014.4 hPa Calm     94 % 0 mm WeatherDisplay:10.37 W/m2 FEW
11:35 0.8 °C -0.1 °C 1014.4 hPa Calm     94 % 0 mm WeatherDisplay:10.37 W/m2 FEW
11:40 0.8 °C -0.1 °C 1014.4 hPa Calm     94 % 0 mm WeatherDisplay:10.37 W/m2 FEW
11:45 0.8 °C 0 °C 1014.1 hPa Calm     94 % 0 mm WeatherDisplay:10.37 W/m2 FEW
11:50 0.9 °C 0.1 °C 1014.1 hPa Calm     94 % 0 mm WeatherDisplay:10.37 W/m2 FEW
11:55 0.9 °C -0.1 °C 1013.8 hPa Calm     93 % 0 mm WeatherDisplay:10.37 W/m2 FEW
12:00 1 °C 0 °C 1013.8 hPa Calm     93 % 0 mm WeatherDisplay:10.37 W/m2 FEW
12:05 1 °C 0 °C 1013.4 hPa Calm     93 % 0 mm WeatherDisplay:10.37 W/m2 FEW
12:10 1.1 °C 0.1 °C 1013.4 hPa Calm   1.6 km/h 93 % 0 mm WeatherDisplay:10.37 W/m2 FEW
12:15 1.1 °C 0.1 °C 1013.4 hPa Calm   1.6 km/h 93 % 0 mm WeatherDisplay:10.37 W/m2 FEW
12:20 1.2 °C 0.3 °C 1013.4 hPa Calm     94 % 0 mm WeatherDisplay:10.37 W/m2 FEW
12:25 1.2 °C 0.2 °C 1013.1 hPa Calm   1.6 km/h 93 % 0 mm WeatherDisplay:10.37 W/m2 FEW
12:30 1.3 °C 0.3 °C 1013.1 hPa Calm     93 % 0 mm WeatherDisplay:10.37 W/m2 FEW
12:35 1.4 °C 0.4 °C 1013.1 hPa Calm     93 % 0 mm WeatherDisplay:10.37 W/m2 FEW
12:40 1.5 °C 0.7 °C 1012.8 hPa Calm   1.6 km/h 94 % 0 mm WeatherDisplay:10.37 W/m2 FEW
12:45 1.6 °C 0.6 °C 1012.8 hPa Calm   3.2 km/h 93 % 0 mm WeatherDisplay:10.37 W/m2 FEW
12:50 1.7 °C 0.7 °C 1012.8 hPa Calm     93 % 0 mm WeatherDisplay:10.37 W/m2 FEW
12:55 1.7 °C 0.7 °C 1012.8 hPa Calm   1.6 km/h 93 % 0 mm WeatherDisplay:10.37 W/m2 FEW
13:00 1.7 °C 0.7 °C 1012.8 hPa Calm   4.8 km/h 93 % 0 mm WeatherDisplay:10.37 W/m2 FEW
13:05 1.8 °C 0.8 °C 1012.4 hPa Calm   3.2 km/h 93 % 0 mm WeatherDisplay:10.37 W/m2 FEW
13:10 1.8 °C 0.8 °C 1012.4 hPa Calm   4.8 km/h 93 % 0 mm WeatherDisplay:10.37 W/m2 FEW
13:15 1.8 °C 0.8 °C 1012.4 hPa Calm   1.6 km/h 93 % 0 mm WeatherDisplay:10.37 W/m2 FEW
13:20 1.8 °C 0.8 °C 1012.1 hPa Calm     93 % 0 mm WeatherDisplay:10.37 W/m2 FEW
13:25 1.8 °C 0.6 °C 1012.1 hPa Calm     92 % 0 mm WeatherDisplay:10.37 W/m2 FEW
13:30 1.7 °C 0.6 °C 1012.1 hPa Calm     92 % 0 mm WeatherDisplay:10.37 W/m2 FEW
13:35 1.7 °C 0.6 °C 1011.7 hPa Calm     92 % 0 mm WeatherDisplay:10.37 W/m2 FEW
13:40 1.7 °C 0.6 °C 1011.7 hPa Calm     92 % 0 mm WeatherDisplay:10.37 W/m2 FEW
13:45 1.7 °C 0.6 °C 1011.7 hPa Calm     92 % 0 mm WeatherDisplay:10.37 W/m2 FEW
13:50 1.8 °C 0.6 °C 1011.7 hPa Calm   1.6 km/h 92 % 0 mm WeatherDisplay:10.37 W/m2 FEW
13:55 1.8 °C 0.8 °C 1011.7 hPa Calm     93 % 0 mm WeatherDisplay:10.37 W/m2 FEW
14:00 1.8 °C 0.8 °C 1011.4 hPa Calm   4.8 km/h 93 % 0 mm WeatherDisplay:10.37 W/m2 FEW
14:05 1.8 °C 0.8 °C 1011.4 hPa Calm   3.2 km/h 93 % 0 mm WeatherDisplay:10.37 W/m2 FEW
14:10 1.8 °C 0.8 °C 1011.4 hPa Calm   3.2 km/h 93 % 0 mm WeatherDisplay:10.37 W/m2 FEW
14:15 1.8 °C 0.8 °C 1011.4 hPa Calm   4.8 km/h 93 % 0 mm WeatherDisplay:10.37 W/m2 FEW
14:20 1.8 °C 0.8 °C 1011.4 hPa Calm   3.2 km/h 93 % 0 mm WeatherDisplay:10.37 W/m2 FEW
14:25 1.8 °C 0.8 °C 1011.1 hPa Calm   3.2 km/h 93 % 0 mm WeatherDisplay:10.37 W/m2 FEW
14:30 1.8 °C 0.8 °C 1011.1 hPa Calm   3.2 km/h 93 % 0 mm WeatherDisplay:10.37 W/m2 FEW
14:35 1.8 °C 0.8 °C 1011.1 hPa Calm     93 % 0 mm WeatherDisplay:10.37 W/m2 FEW
14:40 1.8 °C 0.8 °C 1011.1 hPa Calm   3.2 km/h 93 % 0 mm WeatherDisplay:10.37 W/m2 FEW
14:45 1.8 °C 0.8 °C 1011.1 hPa Calm   4.8 km/h 93 % 0 mm WeatherDisplay:10.37 W/m2 FEW
14:50 1.7 °C 0.7 °C 1011.1 hPa Calm   3.2 km/h 93 % 0 mm WeatherDisplay:10.37 W/m2 FEW
14:55 1.7 °C 0.7 °C 1011.1 hPa Calm   3.2 km/h 93 % 0 mm WeatherDisplay:10.37 W/m2 FEW
15:00 1.7 °C 0.7 °C 1011.1 hPa Calm   6.4 km/h 93 % 0 mm WeatherDisplay:10.37 W/m2 FEW
15:05 1.7 °C 0.7 °C 1010.7 hPa Calm   1.6 km/h 93 % 0 mm WeatherDisplay:10.37 W/m2 FEW
15:10 1.7 °C 0.7 °C 1010.7 hPa Calm   4.8 km/h 93 % 0 mm WeatherDisplay:10.37 W/m2 FEW
15:15 1.7 °C 0.7 °C 1010.7 hPa Calm   3.2 km/h 93 % 0 mm WeatherDisplay:10.37 W/m2 FEW
15:20 1.7 °C 0.7 °C 1010.7 hPa Calm   8 km/h 93 % 0 mm WeatherDisplay:10.37 W/m2 FEW
15:25 1.7 °C 0.7 °C 1011.1 hPa Calm   8 km/h 93 % 0 mm WeatherDisplay:10.37 W/m2 FEW
15:30 1.6 °C 0.6 °C 1011.1 hPa NW 1.6 km/h 8 km/h 93 % 0 mm WeatherDisplay:10.37 W/m2 FEW
15:35 1.6 °C 0.6 °C 1011.1 hPa NNW 3.2 km/h 14.5 km/h 93 % 0 mm WeatherDisplay:10.37 W/m2 FEW
15:40 1.4 °C 0.4 °C 1011.1 hPa NW 8 km/h 19.3 km/h 93 % 0 mm WeatherDisplay:10.37 W/m2 FEW
15:45 1.3 °C 0.3 °C 1011.1 hPa NW 4.8 km/h 16.1 km/h 93 % 0 mm WeatherDisplay:10.37 W/m2 FEW
15:50 1.2 °C 0.2 °C 1011.1 hPa NNW 3.2 km/h 14.5 km/h 93 % 0 mm WeatherDisplay:10.37 W/m2 FEW
15:55 1 °C 0 °C 1011.4 hPa NNW 9.7 km/h 32.2 km/h 93 % 0 mm WeatherDisplay:10.37 W/m2 FEW
16:00 0.8 °C -0.3 °C 1011.4 hPa NNW 11.3 km/h 32.2 km/h 92 % 0 mm WeatherDisplay:10.37 W/m2 FEW
16:05 0.7 °C -0.4 °C 1011.4 hPa NNW 8 km/h 19.3 km/h 92 % 0 mm WeatherDisplay:10.37 W/m2 FEW
16:10 0.7 °C -0.4 °C 1011.4 hPa NNW 9.7 km/h 19.3 km/h 93 % 0 mm WeatherDisplay:10.37 W/m2 FEW
16:15 0.4 °C -0.7 °C 1011.7 hPa NNW 11.3 km/h 29 km/h 92 % 0 mm WeatherDisplay:10.37 W/m2 FEW
16:20 0.2 °C -0.9 °C 1011.7 hPa NNW 19.3 km/h 32.2 km/h 92 % 0 mm WeatherDisplay:10.37 W/m2 FEW
16:25 -0.2 °C -1.7 °C 1011.7 hPa NW 11.3 km/h 32.2 km/h 90 % 0 mm WeatherDisplay:10.37 W/m2 FEW
16:30 -0.5 °C -1.9 °C 1012.1 hPa NNW 14.5 km/h 32.2 km/h 90 % 0 mm WeatherDisplay:10.37 W/m2 FEW
16:35 -0.8 °C -2.5 °C 1011.7 hPa NNW 9.7 km/h 32.2 km/h 88 % 0 mm WeatherDisplay:10.37 W/m2 FEW
16:40 -1 °C -2.9 °C 1012.1 hPa NNW 11.3 km/h 35.4 km/h 87 % 0 mm WeatherDisplay:10.37 W/m2 FEW
16:45 -1.2 °C -3.1 °C 1012.1 hPa NNW 9.7 km/h 29 km/h 87 % 0 mm WeatherDisplay:10.37 W/m2 FEW
16:50 -1.4 °C -3.5 °C 1012.1 hPa NNW 12.9 km/h 32.2 km/h 86 % 0 mm WeatherDisplay:10.37 W/m2 FEW
16:55 -1.6 °C -3.7 °C 1012.1 hPa NNW 11.3 km/h 37 km/h 86 % 0 mm WeatherDisplay:10.37 W/m2 FEW
17:00 -1.8 °C -3.8 °C 1012.4 hPa NNW 11.3 km/h 33.8 km/h 86 % 0 mm WeatherDisplay:10.37 W/m2 FEW
17:05 -1.9 °C -4.1 °C 1012.4 hPa NNW 12.9 km/h 33.8 km/h 85 % 0 mm WeatherDisplay:10.37 W/m2 FEW
17:10 -2.1 °C -4.4 °C 1012.4 hPa NNW 12.9 km/h 32.2 km/h 84 % 0 mm WeatherDisplay:10.37 W/m2 FEW
17:15 -2.2 °C -4.6 °C 1012.8 hPa NNW 14.5 km/h 33.8 km/h 84 % 0 mm WeatherDisplay:10.37 W/m2 FEW
17:20 -2.4 °C -4.7 °C 1012.8 hPa NW 11.3 km/h 22.5 km/h 84 % 0 mm WeatherDisplay:10.37 W/m2 FEW
17:25 -2.4 °C -4.7 °C 1012.8 hPa NW 11.3 km/h 29 km/h 85 % 0 mm WeatherDisplay:10.37 W/m2 FEW
17:30 -2.6 °C -4.7 °C 1012.8 hPa NW 8 km/h 29 km/h 85 % 0 mm WeatherDisplay:10.37 W/m2 FEW
17:35 -2.7 °C -4.8 °C 1012.8 hPa NW 8 km/h 24.1 km/h 85 % 0 mm WeatherDisplay:10.37 W/m2 FEW
17:40 -2.8 °C -5.1 °C 1012.8 hPa NNW 8 km/h 24.1 km/h 84 % 0 mm WeatherDisplay:10.37 W/m2 FEW
17:45 -2.9 °C -5.4 °C 1012.8 hPa NNW 4.8 km/h 22.5 km/h 83 % 0 mm WeatherDisplay:10.37 W/m2 FEW
17:50 -3 °C -5.5 °C 1012.8 hPa NNW 11.3 km/h 19.3 km/h 83 % 0 mm WeatherDisplay:10.37 W/m2 FEW
17:55 -3.1 °C -5.6 °C 1012.8 hPa NNW 9.7 km/h 22.5 km/h 83 % 0 mm WeatherDisplay:10.37 W/m2 FEW
18:00 -3.2 °C -5.9 °C 1012.8 hPa NNW 12.9 km/h 32.2 km/h 82 % 0 mm WeatherDisplay:10.37 W/m2 FEW
18:05 -3.4 °C -6 °C 1013.1 hPa NNW 8 km/h 19.3 km/h 82 % 0 mm WeatherDisplay:10.37 W/m2 FEW
18:10 -3.5 °C -6.4 °C 1013.4 hPa NW 8 km/h 20.9 km/h 80 % 0 mm WeatherDisplay:10.37 W/m2 FEW
18:15 -3.7 °C -6.8 °C 1013.4 hPa NW 9.7 km/h 33.8 km/h 79 % 0 mm WeatherDisplay:10.37 W/m2 FEW
18:20 -3.8 °C -7.1 °C 1013.8 hPa NW 12.9 km/h 25.7 km/h 78 % 0 mm WeatherDisplay:10.37 W/m2 FEW
18:25 -4 °C -7.4 °C 1013.8 hPa NNW 9.7 km/h 32.2 km/h 77 % 0 mm WeatherDisplay:10.37 W/m2 FEW
18:30 -4.2 °C -7.6 °C 1013.8 hPa NNW 11.3 km/h 20.9 km/h 77 % 0 mm WeatherDisplay:10.37 W/m2 FEW
18:35 -4.3 °C -7.8 °C 1013.4 hPa NW 9.7 km/h 20.9 km/h 77 % 0 mm WeatherDisplay:10.37 W/m2 FEW
18:40 -4.5 °C -7.9 °C 1013.8 hPa NW 19.3 km/h 35.4 km/h 77 % 0 mm WeatherDisplay:10.37 W/m2 FEW
18:45 -4.7 °C -8.1 °C 1013.8 hPa WNW 4.8 km/h 20.9 km/h 77 % 0 mm WeatherDisplay:10.37 W/m2 FEW
18:50 -4.8 °C -8.1 °C 1014.1 hPa NW 8 km/h 24.1 km/h 78 % 0 mm WeatherDisplay:10.37 W/m2 FEW
18:55 -4.9 °C -8.2 °C 1014.1 hPa NNW 4.8 km/h 22.5 km/h 78 % 0 mm WeatherDisplay:10.37 W/m2 FEW
19:00 -5.1 °C -8.3 °C 1014.1 hPa NNW 12.9 km/h 20.9 km/h 78 % 0 mm WeatherDisplay:10.37 W/m2 FEW
19:05 -5.2 °C -8.4 °C 1014.1 hPa NNW 3.2 km/h 19.3 km/h 78 % 0 mm WeatherDisplay:10.37 W/m2 FEW
19:10 -5.3 °C -8.6 °C 1014.8 hPa NNW 3.2 km/h 14.5 km/h 78 % 0 mm WeatherDisplay:10.37 W/m2 FEW
19:15 -5.4 °C -8.7 °C 1014.8 hPa NW 1.6 km/h 22.5 km/h 78 % 0 mm WeatherDisplay:10.37 W/m2 FEW
19:20 -5.6 °C -9 °C 1014.4 hPa NNW 11.3 km/h 25.7 km/h 77 % 0 mm WeatherDisplay:10.37 W/m2 FEW
19:25 -5.7 °C -9.1 °C 1014.4 hPa NNW 11.3 km/h 22.5 km/h 77 % 0 mm WeatherDisplay:10.37 W/m2 FEW
19:30 -5.9 °C -9.4 °C 1014.4 hPa NNW 12.9 km/h 32.2 km/h 76 % 0 mm WeatherDisplay:10.37 W/m2 FEW
19:35 -6 °C -9.6 °C 1014.8 hPa NNW 8 km/h 22.5 km/h 76 % 0 mm WeatherDisplay:10.37 W/m2 FEW
19:40 -6.1 °C -9.4 °C 1015.1 hPa NNW 4.8 km/h 14.5 km/h 77 % 0 mm WeatherDisplay:10.37 W/m2 FEW
19:45 -6.2 °C -9.6 °C 1015.1 hPa NW 11.3 km/h 24.1 km/h 77 % 0 mm WeatherDisplay:10.37 W/m2 FEW
19:50 -6.3 °C -9.8 °C 1015.1 hPa NNW 16.1 km/h 32.2 km/h 76 % 0 mm WeatherDisplay:10.37 W/m2 FEW
19:55 -6.4 °C -10.1 °C 1015.1 hPa NNW 9.7 km/h 20.9 km/h 75 % 0 mm WeatherDisplay:10.37 W/m2 FEW
20:00 -6.5 °C -10.1 °C 1015.1 hPa NNW 9.7 km/h 25.7 km/h 76 % 0 mm WeatherDisplay:10.37 W/m2 FEW
20:05 -6.6 °C -10.2 °C 1015.1 hPa NNW 11.3 km/h 22.5 km/h 76 % 0 mm WeatherDisplay:10.37 W/m2 FEW
20:10 -6.7 °C -10.2 °C 1015.1 hPa NW 16.1 km/h 33.8 km/h 76 % 0 mm WeatherDisplay:10.37 W/m2 FEW
20:15 -6.8 °C -10.2 °C 1015.5 hPa NW 8 km/h 25.7 km/h 77 % 0 mm WeatherDisplay:10.37 W/m2 FEW
20:20 -6.9 °C -10.3 °C 1015.5 hPa NW 9.7 km/h 16.1 km/h 77 % 0 mm WeatherDisplay:10.37 W/m2 FEW
20:25 -7.1 °C -10.7 °C 1015.8 hPa NW 11.3 km/h 32.2 km/h 75 % 0 mm WeatherDisplay:10.37 W/m2 FEW
20:30 -7.3 °C -11.1 °C 1015.8 hPa NNW 14.5 km/h 32.2 km/h 74 % 0 mm WeatherDisplay:10.37 W/m2 FEW
20:35 -7.4 °C -11.4 °C 1015.8 hPa NW 8 km/h 24.1 km/h 73 % 0 mm WeatherDisplay:10.37 W/m2 FEW
20:40 -7.6 °C -11.6 °C 1015.8 hPa NW 4.8 km/h 24.1 km/h 73 % 0 mm WeatherDisplay:10.37 W/m2 FEW
20:45 -7.7 °C -11.7 °C 1016.1 hPa NW 19.3 km/h 32.2 km/h 73 % 0 mm WeatherDisplay:10.37 W/m2 FEW
20:50 -7.8 °C -11.8 °C 1016.1 hPa NNW 8 km/h 29 km/h 73 % 0 mm WeatherDisplay:10.37 W/m2 FEW
20:55 -7.9 °C -11.9 °C 1016.1 hPa NNW 16.1 km/h 32.2 km/h 73 % 0 mm WeatherDisplay:10.37 W/m2 FEW
21:00 -8 °C -12 °C 1016.5 hPa NW 9.7 km/h 25.7 km/h 73 % 0 mm WeatherDisplay:10.37 W/m2 FEW
21:05 -8.1 °C -12.1 °C 1016.5 hPa NNW 12.9 km/h 32.2 km/h 73 % 0 mm WeatherDisplay:10.37 W/m2 FEW
21:10 -8.2 °C -11.9 °C 1016.5 hPa NNW 8 km/h 24.1 km/h 74 % 0 mm WeatherDisplay:10.37 W/m2 FEW
21:15 -8.2 °C -12.1 °C 1016.5 hPa NW 4.8 km/h 19.3 km/h 74 % 0 mm WeatherDisplay:10.37 W/m2 FEW
21:20 -8.3 °C -12.2 °C 1016.5 hPa NW 9.7 km/h 20.9 km/h 74 % 0 mm WeatherDisplay:10.37 W/m2 FEW
21:25 -8.4 °C -12.2 °C 1016.8 hPa NW 20.9 km/h 32.2 km/h 74 % 0 mm WeatherDisplay:10.37 W/m2 FEW
21:30 -8.5 °C -12.4 °C 1016.5 hPa NW 12.9 km/h 25.7 km/h 73 % 0 mm WeatherDisplay:10.37 W/m2 FEW
21:35 -8.6 °C -12.3 °C 1016.5 hPa NNW 9.7 km/h 20.9 km/h 74 % 0 mm WeatherDisplay:10.37 W/m2 FEW
21:40 -8.6 °C -12.4 °C 1016.5 hPa NW 8 km/h 17.7 km/h 74 % 0 mm WeatherDisplay:10.37 W/m2 FEW
21:45 -8.6 °C -12.4 °C 1016.5 hPa NNW 4.8 km/h 22.5 km/h 74 % 0 mm WeatherDisplay:10.37 W/m2 FEW
21:50 -8.7 °C -12.3 °C 1016.5 hPa NNW 8 km/h 22.5 km/h 75 % 0 mm WeatherDisplay:10.37 W/m2 FEW
21:55 -8.7 °C -12.3 °C 1016.5 hPa NW 8 km/h 19.3 km/h 75 % 0 mm WeatherDisplay:10.37 W/m2 FEW
22:00 -8.8 °C -12.4 °C 1016.5 hPa NW 12.9 km/h 25.7 km/h 75 % 0 mm WeatherDisplay:10.37 W/m2 FEW
22:05 -8.8 °C -12.2 °C 1016.8 hPa NW 3.2 km/h 12.9 km/h 76 % 0 mm WeatherDisplay:10.37 W/m2 FEW
22:10 -8.8 °C -12.2 °C 1016.8 hPa NW 4.8 km/h 11.3 km/h 76 % 0 mm WeatherDisplay:10.37 W/m2 FEW
22:15 -8.8 °C -12.3 °C 1016.8 hPa NW 8 km/h 14.5 km/h 76 % 0 mm WeatherDisplay:10.37 W/m2 FEW
22:20 -8.9 °C -12.3 °C 1016.8 hPa NW 9.7 km/h 24.1 km/h 76 % 0 mm WeatherDisplay:10.37 W/m2 FEW
22:25 -8.9 °C -12.3 °C 1017.2 hPa NW 3.2 km/h 12.9 km/h 76 % 0 mm WeatherDisplay:10.37 W/m2 FEW
22:30 -8.9 °C -12.3 °C 1017.2 hPa NW 3.2 km/h 16.1 km/h 76 % 0 mm WeatherDisplay:10.37 W/m2 FEW
22:35 -8.9 °C -12.6 °C 1017.2 hPa NW 9.7 km/h 20.9 km/h 75 % 0 mm WeatherDisplay:10.37 W/m2 FEW
22:40 -9 °C -12.8 °C 1017.2 hPa NW 3.2 km/h 16.1 km/h 74 % 0 mm WeatherDisplay:10.37 W/m2 FEW
22:45 -9 °C -12.8 °C 1017.2 hPa NNW 8 km/h 19.3 km/h 74 % 0 mm WeatherDisplay:10.37 W/m2 FEW
22:50 -9 °C -12.9 °C 1017.5 hPa NNW 8 km/h 20.9 km/h 73 % 0 mm WeatherDisplay:10.37 W/m2 FEW
22:55 -9 °C -12.9 °C 1017.5 hPa NNW 3.2 km/h 14.5 km/h 73 % 0 mm WeatherDisplay:10.37 W/m2 FEW
23:00 -9.1 °C -13.2 °C 1017.5 hPa NNW 9.7 km/h 24.1 km/h 72 % 0 mm WeatherDisplay:10.37 W/m2 FEW
23:05 -9.1 °C -13.2 °C 1017.5 hPa NW 9.7 km/h 20.9 km/h 72 % 0 mm WeatherDisplay:10.37 W/m2 FEW
23:10 -9.1 °C -13.4 °C 1017.5 hPa NNW 3.2 km/h 24.1 km/h 71 % 0 mm WeatherDisplay:10.37 W/m2 FEW
23:15 -9.2 °C -13.4 °C 1017.5 hPa NNW 1.6 km/h 9.7 km/h 71 % 0 mm WeatherDisplay:10.37 W/m2 FEW
23:20 -9.2 °C -13.5 °C 1017.5 hPa NW 3.2 km/h 11.3 km/h 71 % 0 mm WeatherDisplay:10.37 W/m2 FEW
Juneau County Weather
Compliments of Weather Underground - 2.75 mb